Wind_Speed
20 20 19 19 19 19 19 19 19 19 20 20 20 21 21 23 24 25 25 26 26 27 27 27 27 26 27 26 26 27 26 26 26 27 27 27 27 28 29 29 28 29 29
21 20 19 19 19 19 19 19 19 19 18 19 20 21 21 22 23 24 25 26 27 27 26 26 26 26 26 25 26 26 27 28 28 28 28 28 28 28 29 30 30 30 31
20 19 20 20 19 19 19 19 19 19 19 19 20 21 22 22 22 23 24 24 25 26 26 26 26 26 26 25 25 26 27 28 28 28 28 28 29 30 30 31 31 31 32
20 20 20 19 19 19 19 19 19 18 18 19 20 20 20 21 22 22 23 23 24 24 24 25 26 26 26 26 26 26 27 28 28 29 29 29 30 30 30 31 31 32 32
20 20 20 19 19 19 19 19 19 19 19 20 20 21 22 22 22 23 24 24 25 25 25 26 26 26 26 26 27 27 28 28 28 28 29 29 29 30 30 30 31 31 32
20 20 20 20 20 20 20 20 20 20 20 21 22 22 22 23 23 24 25 25 26 27 27 27 27 27 27 27 27 28 28 28 28 28 28 28 28 29 29 30 30 30 31
21 21 21 21 21 21 21 21 21 21 21 22 22 22 23 24 25 26 25 26 26 26 27 27 27 27 27 28 28 28 28 28 28 28 28 28 28 28 29 30 30 30 30
20 20 21 20 20 20 20 21 21 21 22 22 23 23 24 25 25 26 26 26 26 26 26 26 27 27 28 28 28 29 29 28 28 28 28 28 28 28 28 29 29 29 28
19 20 20 20 21 21 20 20 21 21 22 23 23 24 24 25 25 25 25 25 26 26 26 27 27 28 28 28 28 28 28 28 28 28 28 28 28 28 28 28 28 27 27
19 20 20 20 20 20 20 21 21 22 23 24 24 24 24 25 25 25 25 26 26 27 27 27 27 27 27 27 28 28 28 28 29 29 29 29 28 28 27 26 26 26 25
20 21 21 21 21 21 22 23 23 23 23 24 24 24 25 25 25 26 26 26 26 26 26 27 27 27 27 27 27 27 27 27 28 28 28 28 27 27 26 25 25 25 24
20 21 22 22 21 22 22 23 24 24 24 25 25 25 25 25 26 26 26 26 26 26 26 26 26 26 26 26 26 26 26 27 26 26 26 27 27 26 26 25 24 24 24
20 21 22 22 23 23 23 24 24 24 25 25 25 25 25 25 25 25 25 25 25 25 25 24 24 24 24 25 25 25 25 25 25 25 25 26 25 25 24 24 24 23 22
19 20 21 21 22 23 24 24 24 25 25 25 25 25 24 24 24 24 24 24 24 23 23 22 22 22 22 22 22 22 22 22 23 23 24 24 24 23 23 22 21 21 20
18 19 20 20 21 23 23 24 24 24 24 24 24 23 23 23 23 23 22 22 22 21 21 20 20 20 20 20 20 20 20 20 21 21 22 21 21 21 21 20 18 18 18
18 19 19 19 20 22 22 23 24 24 23 22 22 22 22 21 21 21 20 20 19 19 19 18 18 18 18 17 17 17 17 17 18 18 18 17 18 17 17 16 15 15 15
17 17 17 17 19 20 21 22 22 20 19 19 19 19 19 19 18 18 18 18 17 17 16 16 16 16 15 15 14 14 14 14 14 14 14 13 13 13 13 12 13 13 13
16 16 17 17 17 18 18 18 18 17 17 16 16 16 16 16 15 15 14 14 14 13 13 13 13 13 13 12 12 12 11 11 11 11 10 9 8 8 9 10 10 10 10
14 14 14 15 15 15 15 15 14 14 14 13 13 12 12 12 12 12 11 11 11 11 11 11 11 11 10 10 9 8 8 7 7 7 6 6 5 4 4 6 7 7 7
11 12 12 13 13 12 12 11 11 11 11 11 11 10 10 9 9 10 10 10 10 10 9 8 8 7 6 5 4 3 3 2 2 3 2 2 2 2 2 2 2 3 3
10 11 11 11 11 11 10 10 10 9 9 9 9 9 9 8 8 8 7 7 7 7 6 5 5 4 4 3 2 1 1 1 1 1 2 2 2 3 3 3 2 2 2
9 9 9 9 9 9 9 9 8 8 8 8 8 7 7 7 6 6 6 5 4 4 3 3 3 2 3 3 3 2 2 3 3 4 4 4 5 5 5 5 5 5 5
7 7 7 7 8 8 8 7 7 7 6 6 6 5 4 4 4 3 3 3 2 2 2 2 3 3 4 4 4 4 3 4 4 5 5 7 7 7 7 7 7 7 7
7 6 7 7 6 6 6 6 6 6 5 5 4 4 4 3 2 2 2 2 2 2 3 4 4 5 6 6 5 5 5 6 6 7 7 8 8 8 8 8 8 8 7
6 5 6 6 6 6 6 6 6 5 5 4 4 5 5 4 5 5 5 4 4 4 5 6 6 7 7 7 7 7 7 7 8 8 8 9 9 9 9 9 9 9 9
5 5 5 5 6 5 6 6 6 6 6 5 5 5 6 6 6 6 6 6 6 6 7 8 8 9 9 8 8 8 8 9 9 10 10 10 10 10 10 10 10 10 10
Wind_Direction
279 280 281 281 280 280 280 279 274 270 268 264 263 260 259 258 259 257 255 256 258 259 261 262 264 267 268 267 268 271 272 274 275 275 276 276 275 274 273 273 273 273 274
277 278 280 279 278 279 279 279 275 272 269 266 266 263 261 260 261 259 257 257 257 260 263 266 267 269 269 269 270 271 272 273 274 275 275 276 276 275 274 274 273 272 273
276 276 277 275 275 277 279 282 278 273 273 269 270 270 266 261 260 260 260 261 263 263 265 268 269 271 270 271 271 272 273 274 274 275 275 275 275 275 275 274 273 272 272
277 278 277 273 271 276 278 281 278 273 274 274 275 273 269 265 264 263 264 265 267 268 270 272 272 272 271 271 272 273 274 274 275 275 275 275 275 275 275 274 273 272 272
276 279 276 273 271 275 277 278 277 275 275 273 275 273 270 268 267 267 268 269 270 271 272 273 272 272 271 272 273 274 274 275 275 276 276 276 275 275 274 274 274 272 272
274 277 278 276 275 278 277 276 276 275 276 276 275 271 270 270 270 271 272 272 272 273 273 274 274 273 272 272 273 274 274 275 275 275 275 275 276 276 274 274 274 274 273
273 276 279 280 278 278 277 276 276 274 274 275 275 272 270 271 271 274 275 274 274 273 272 273 273 273 272 272 273 273 274 275 274 274 274 274 275 275 275 276 275 274 273
275 278 278 279 277 276 277 277 275 274 273 274 276 275 272 272 272 273 274 275 276 275 275 274 274 274 273 272 273 273 273 273 273 273 273 273 274 275 275 276 276 277 275
276 277 278 278 277 277 278 278 277 275 273 274 276 277 277 277 276 275 275 275 276 276 276 276 276 275 273 272 272 272 271 271 271 271 272 272 273 274 275 275 276 277 277
277 279 278 278 277 276 278 279 277 276 274 275 277 277 277 278 279 279 278 277 276 277 277 277 276 275 274 273 272 272 271 270 270 270 270 271 272 273 275 275 275 276 276
277 278 279 279 280 279 281 280 278 278 277 275 276 278 277 278 280 280 280 278 278 278 278 277 276 275 275 274 272 271 271 271 270 270 271 271 272 272 273 274 274 274 275
278 278 279 281 280 280 280 280 279 278 278 277 277 277 279 279 280 280 280 280 279 278 277 278 277 276 275 273 272 271 271 270 269 269 270 270 271 272 272 271 271 272 273
278 278 279 280 278 277 278 279 279 277 277 278 278 277 278 280 281 281 280 280 280 280 279 278 277 277 275 273 272 272 270 269 269 270 270 270 270 271 271 271 270 270 270
283 281 280 281 280 278 277 277 277 278 278 279 278 278 279 279 281 282 282 281 281 281 280 278 277 276 275 274 273 272 271 271 271 271 271 271 270 269 270 270 268 265 265
287 286 286 284 282 279 278 278 278 278 278 279 279 279 280 279 280 281 281 281 280 280 279 277 277 276 274 274 273 271 271 273 273 273 272 270 270 270 268 267 265 263 261
286 288 288 286 284 282 280 281 281 278 279 279 279 279 281 282 280 281 281 282 281 279 277 275 276 277 274 273 273 271 274 277 277 276 273 270 270 269 266 262 260 259 259
289 291 292 290 288 286 284 283 284 282 281 280 279 281 283 283 284 283 282 281 279 278 277 276 275 275 273 271 272 275 277 279 279 276 274 271 266 265 262 256 256 256 256
290 290 292 292 295 297 294 288 284 281 280 282 284 285 288 288 285 284 282 281 280 277 276 275 274 274 270 270 272 274 277 278 278 275 272 269 267 264 257 250 248 250 252
293 294 297 297 298 300 297 291 285 284 285 285 287 289 291 289 285 284 282 281 277 274 273 270 269 267 265 265 265 269 273 272 276 277 267 270 262 252 247 246 241 242 245
300 302 305 307 308 307 306 300 296 295 293 293 295 296 296 292 285 283 281 275 272 269 268 262 261 255 254 252 248 257 261 265 274 276 263 247 221 203 214 222 221 223 224
305 308 309 311 315 317 315 311 306 306 305 304 303 300 299 297 293 284 282 278 270 264 258 250 243 238 229 211 195 181 191 165 136 125 112 111 132 149 145 134 131 131 138
312 316 318 319 320 321 320 320 316 313 312 312 310 303 299 295 295 290 279 266 253 247 234 214 211 204 169 154 145 135 131 131 113 104 94 106 111 117 119 116 112 112 112
326 328 330 328 325 328 329 332 332 330 330 330 325 323 322 311 299 293 274 251 232 218 202 185 173 156 144 133 131 131 121 115 109 105 98 107 105 109 106 105 104 102 100
341 346 347 345 350 354 358 360 356 352 350 356 7 15 24 29 37 41 65 95 125 144 158 149 140 139 135 131 130 126 124 116 109 105 98 105 101 98 97 99 101 100 99
2 360 4 6 6 8 9 10 14 14 22 40 47 50 52 61 62 66 75 89 101 114 130 135 133 131 128 126 123 121 119 115 109 105 103 104 100 95 93 95 95 92 91
11 11 16 16 18 21 19 23 27 33 46 59 61 61 63 70 73 78 83 89 102 110 122 126 126 126 126 125 121 118 116 114 111 110 106 101 99 97 96 94 94 92 89
Height
5860 5859 5858 5857 5856 5855 5855 5853 5852 5851 5850 5850 5849 5849 5849 5849 5850 5850 5850 5851 5852 5852 5853 5853 5853 5853 5853 5853 5853 5853 5853 5853 5853 5852 5852 5851 5851 5850 5850 5849 5849 5849 5848
5856 5855 5854 5853 5852 5851 5850 5849 5848 5847 5846 5845 5845 5845 5844 5844 5844 5845 5845 5845 5846 5846 5847 5847 5847 5848 5847 5847 5847 5847 5847 5847 5846 5846 5845 5845 5845 5844 5843 5842 5842 5842 5841
5851 5851 5849 5849 5848 5847 5846 5845 5843 5842 5842 5841 5840 5840 5839 5839 5840 5840 5840 5840 5840 5841 5841 5841 5841 5841 5841 5841 5841 5841 5840 5840 5840 5839 5838 5838 5838 5837 5837 5835 5835 5834 5834
5847 5846 5845 5844 5843 5842 5841 5840 5839 5838 5837 5836 5836 5835 5835 5835 5834 5834 5834 5835 5835 5835 5835 5835 5835 5835 5835 5834 5834 5834 5834 5834 5833 5832 5831 5831 5831 5830 5829 5828 5828 5827 5826
5843 5841 5840 5839 5838 5838 5837 5836 5834 5833 5833 5832 5831 5830 5830 5830 5829 5829 5829 5829 5829 5829 5829 5829 5828 5828 5828 5827 5827 5827 5827 5827 5826 5825 5825 5824 5823 5822 5822 5821 5821 5820 5819
5838 5837 5836 5834 5834 5833 5832 5831 5830 5829 5828 5827 5826 5825 5824 5824 5824 5823 5823 5823 5822 5822 5822 5822 5822 5821 5821 5820 5820 5820 5820 5819 5819 5819 5818 5817 5816 5816 5815 5814 5813 5812 5811
5834 5832 5831 5830 5829 5828 5827 5826 5825 5824 5823 5822 5821 5820 5819 5818 5818 5817 5816 5816 5816 5815 5815 5815 5814 5814 5813 5813 5813 5813 5812 5812 5812 5811 5810 5810 5809 5809 5808 5807 5806 5805 5805
5829 5827 5826 5825 5823 5822 5822 5820 5820 5819 5818 5817 5815 5814 5813 5812 5811 5810 5810 5809 5809 5808 5808 5807 5807 5806 5806 5805 5805 5805 5805 5805 5804 5804 5803 5803 5802 5801 5801 5800 5799 5798 5797
5824 5822 5821 5820 5818 5817 5816 5815 5814 5813 5812 5811 5810 5808 5807 5806 5804 5803 5802 5802 5801 5801 5800 5799 5799 5798 5798 5798 5798 5797 5797 5797 5797 5796 5796 5796 5795 5794 5794 5793 5792 5792 5791
5819 5817 5816 5815 5813 5812 5811 5810 5809 5808 5806 5805 5803 5802 5801 5800 5798 5797 5796 5795 5794 5793 5792 5792 5791 5791 5790 5790 5790 5790 5789 5789 5789 5789 5789 5789 5788 5788 5787 5786 5786 5785 5785
5814 5812 5811 5809 5808 5807 5805 5804 5803 5801 5800 5799 5797 5796 5795 5793 5792 5791 5789 5788 5787 5786 5785 5784 5784 5783 5783 5782 5782 5782 5782 5782 5782 5781 5781 5781 5781 5781 5781 5780 5780 5779 5779
5808 5807 5805 5804 5802 5801 5799 5798 5796 5795 5793 5792 5791 5790 5788 5787 5785 5784 5782 5781 5780 5779 5778 5777 5777 5776 5775 5775 5775 5775 5775 5774 5774 5774 5774 5774 5774 5774 5774 5774 5773 5773 5773
5803 5801 5800 5798 5796 5795 5793 5792 5790 5788 5787 5785 5784 5783 5781 5780 5778 5777 5775 5774 5773 5772 5771 5770 5770 5769 5768 5768 5768 5768 5767 5767 5767 5767 5767 5767 5767 5767 5767 5767 5767 5767 5767
5797 5795 5794 5792 5790 5788 5787 5785 5783 5782 5780 5778 5777 5776 5774 5773 5772 5770 5769 5768 5767 5766 5764 5764 5763 5763 5762 5762 5761 5761 5761 5761 5761 5761 5761 5761 5761 5761 5761 5761 5761 5761 5761
5792 5790 5787 5785 5784 5782 5780 5778 5776 5775 5773 5772 5770 5769 5768 5767 5765 5764 5763 5762 5761 5759 5758 5758 5757 5757 5756 5756 5756 5756 5755 5755 5755 5755 5755 5755 5755 5755 5755 5755 5756 5756 5756
5786 5784 5782 5779 5777 5775 5773 5771 5769 5768 5766 5765 5764 5763 5762 5760 5759 5758 5757 5756 5755 5754 5753 5753 5752 5752 5751 5751 5751 5751 5751 5750 5750 5750 5749 5750 5750 5750 5750 5750 5751 5752 5752
5781 5779 5776 5774 5772 5770 5767 5765 5763 5762 5760 5759 5758 5757 5756 5755 5753 5752 5751 5750 5749 5749 5748 5748 5747 5747 5747 5747 5747 5747 5747 5746 5746 5745 5745 5745 5745 5745 5745 5746 5747 5747 5748
5776 5774 5772 5769 5767 5765 5762 5760 5758 5757 5755 5754 5753 5752 5751 5750 5748 5748 5746 5746 5745 5744 5744 5744 5743 5743 5743 5743 5743 5743 5743 5743 5742 5742 5742 5741 5742 5742 5742 5742 5743 5744 5745
5771 5769 5767 5765 5763 5761 5758 5756 5754 5752 5751 5750 5749 5748 5747 5746 5745 5744 5743 5742 5741 5741 5741 5740 5740 5740 5740 5740 5741 5741 5741 5740 5740 5739 5739 5739 5739 5740 5740 5740 5741 5741 5742
5768 5766 5764 5762 5759 5757 5755 5752 5750 5749 5748 5747 5746 5744 5743 5742 5741 5740 5739 5739 5738 5738 5738 5738 5738 5738 5738 5739 5739 5739 5739 5738 5738 5738 5738 5738 5738 5739 5739 5739 5739 5740 5740
5765 5763 5761 5759 5756 5754 5752 5750 5748 5747 5745 5744 5743 5742 5741 5740 5739 5738 5737 5736 5736 5736 5736 5736 5736 5736 5737 5737 5738 5738 5738 5738 5738 5738 5738 5738 5738 5738 5738 5739 5739 5739 5740
5763 5761 5758 5756 5754 5752 5750 5748 5746 5745 5743 5742 5741 5739 5738 5737 5736 5736 5735 5734 5734 5735 5735 5735 5735 5736 5736 5737 5738 5738 5738 5739 5739 5739 5739 5739 5739 5739 5739 5740 5740 5740 5740
5761 5759 5757 5754 5752 5750 5748 5746 5745 5743 5742 5740 5739 5738 5737 5736 5735 5734 5733 5733 5733 5734 5734 5734 5735 5736 5736 5737 5738 5738 5739 5739 5740 5740 5740 5740 5740 5741 5741 5741 5741 5741 5742
5759 5757 5755 5753 5751 5749 5748 5746 5744 5743 5741 5740 5738 5737 5736 5736 5735 5734 5733 5733 5733 5734 5734 5735 5735 5736 5737 5738 5739 5740 5740 5740 5741 5741 5742 5742 5742 5742 5743 5743 5743 5743 5743
5758 5757 5755 5753 5751 5749 5748 5746 5744 5743 5741 5740 5739 5738 5737 5736 5735 5735 5734 5734 5734 5735 5735 5736 5737 5738 5739 5740 5740 5741 5742 5742 5742 5743 5744 5744 5744 5745 5745 5745 5745 5745 5745
5758 5756 5755 5753 5752 5750 5748 5746 5745 5744 5742 5741 5740 5739 5738 5738 5737 5737 5736 5736 5736 5736 5737 5738 5739 5740 5741 5742 5742 5743 5743 5744 5745 5745 5746 5746 5747 5747 5747 5747 5748 5748 5748